STARLINK-1556, 46033

Orbit data source: Space-Track

STARLINK-1556, 46033 is a payload satellite owned by SpaceX/Seattle (US) in LEO that was launched on Fri, 07 Aug 2020 UTC via an FALCON 9 launch vehicle from the Air Force Eastern Test Range (AFETR). Payload-class satellites include a variety of spacecraft equipped with specific instruments for various scientific and technological missions. These include communications satellites like Starlink; space stations such as the ISS; scientific satellites like the Hubble; Earth observation satellites from companies like Planet Labs, Umbra, and HawkEye 360; GPS; miniature CubeSats for education and research; and military/defense satellites.

Loading next visibility...
Identifier
46033, 2020-055G
Orbit
LEO
Country
Flag of USUS
Related business
Manufacturer
SpaceX/Seattle
Mission
Operational Commercial Communications
Bus & Motor
STARLINK, Unknown motor
Mass
260 kg wet, ~248 kg dry
Launch date (UTC)
2020-08-07 (6 years ago)
Launch vehicle
FALCON 9
Launch site
Air Force Eastern Test Range (AFETR)
Object type
Payload
Rocket body
Debris
Shape & HBR
Box + 1 Pan, 10.1 m
Radar Cross Section
13.562 m², Large (>1 m²)

Expand to show TLE details & history
Last TLE update: 11 hours ago

TLE from 11 hours ago
0 STARLINK-1556
1 46033U 20055G   26123.02110821 -.00002600  00000-0 -75689-4 0  9996
2 46033  53.1607 234.3461 0001557  89.0171 271.1008 15.30199889317189
Epoch: 2026-05-03T00:30Z
TLE epoch observation values (Epoch: 2026-05-03T00:30:23.749Z)
Latitude
-0.00003°
Longitude
5.81648°
Altitude
476.095 km
Speed
7.629 km/s
True Right ascension
15h 37m 23s
True Declination
0° 00' 00"
Sunlit
Object was in full shadow at epoch
Visualization orbit readout
Latitude
Unknown
Longitude
Unknown
Altitude
Unknown
Speed
Unknown
Apparent Right ascension
Unknown
Apparent Declination
Unknown
Sunlit
N/A
Visualization observer readout
Local Sidereal Time
19:37:43
Azimuth
Unknown
Elevation
Unknown
Doppler factor
Unknown
Orbital elements
Apogee altitude
476.539 km
Perigee altitude
474.405 km
Semi-major axis
6,853.609 km
Eccentricity
0.00016
Inclination
53.1607°
RAAN
234.3461°
Arg. of periapsis
89.0171°
True anomaly
271.08296°
Mean anomaly
271.1008°
Eccentric anomaly
271.09188°
Mean motion
3.82529 °/min
Orbital period
94.11 mins
BSTAR
-0.000075689
Loading maneuver chart data...
Computing Atmospheric mass density...

Documentation

Showing up to 5 results
|